| time (UTC) | temp F | wind direction | speed MPH | gust MPH | rain 1hr in | rain 24hr in | rain mn in | humidity % | barometer mb |
| 20260508224554 | 64 | 226 | 1.0 | 7.0 | 0.00 | 0.07 | 0.07 | 41 | 1005.6 |
| 20260508223046 | 64 | 152 | 0.0 | 3.0 | 0.00 | 0.07 | 0.07 | 40 | 1005.6 |
| 20260508221546 | 64 | 262 | 0.0 | 4.0 | 0.00 | 0.07 | 0.07 | 43 | 1005.6 |
| 20260508220046 | 64 | 107 | 0.0 | 3.0 | 0.00 | 0.07 | 0.07 | 37 | 1005.8 |
| 20260508214549 | 65 | 106 | 0.0 | 5.0 | 0.00 | 0.07 | 0.07 | 37 | 1005.8 |
| 20260508213050 | 63 | 98 | 0.0 | 6.0 | 0.00 | 0.07 | 0.07 | 39 | 1006.0 |
| 20260508211542 | 65 | 207 | 0.0 | 4.0 | 0.00 | 0.07 | 0.07 | 39 | 1006.0 |
| 20260508210043 | 65 | 157 | 1.0 | 5.0 | 0.00 | 0.07 | 0.07 | 37 | 1006.2 |
| 20260508204541 | 66 | 89 | 1.0 | 3.0 | 0.00 | 0.07 | 0.07 | 37 | 1006.2 |
| 20260508203045 | 66 | 113 | 0.0 | 5.0 | 0.00 | 0.07 | 0.07 | 36 | 1006.5 |
| 20260508201538 | 66 | 138 | 1.0 | 6.0 | 0.00 | 0.07 | 0.07 | 38 | 1006.9 |
| 20260508200039 | 65 | 131 | 2.0 | 8.0 | 0.00 | 0.07 | 0.07 | 38 | 1006.9 |
| 20260508194529 | 64 | 93 | 3.0 | 7.0 | 0.00 | 0.07 | 0.07 | 38 | 1007.4 |
| 20260508193025 | 65 | 25 | 0.0 | 6.0 | 0.00 | 0.07 | 0.07 | 39 | 1007.6 |
| 20260508191527 | 64 | 124 | 0.0 | 3.0 | 0.00 | 0.07 | 0.07 | 37 | 1007.8 |
| 20260508190025 | 64 | 190 | 0.0 | 2.0 | 0.00 | 0.07 | 0.07 | 38 | 1008.1 |
| 20260508184520 | 63 | 286 | 1.0 | 8.0 | 0.00 | 0.07 | 0.07 | 39 | 1008.3 |
| 20260508183018 | 64 | 180 | 1.0 | 4.0 | 0.00 | 0.07 | 0.07 | 37 | 1008.5 |
| 20260508181538 | 64 | 260 | 0.0 | 4.0 | 0.00 | 0.07 | 0.07 | 40 | 1008.6 |
| 20260508180015 | 63 | 285 | 0.0 | 5.0 | 0.00 | 0.07 | 0.07 | 35 | 1008.8 |
| 20260508174516 | 63 | 195 | 1.0 | 7.0 | 0.00 | 0.07 | 0.07 | 39 | 1009.1 |
| 20260508173008 | 62 | 246 | 0.0 | 3.0 | 0.00 | 0.07 | 0.07 | 39 | 1009.5 |
| 20260508171505 | 61 | 65 | 1.0 | 5.0 | 0.00 | 0.07 | 0.07 | 38 | 1009.7 |
| 20260508170002 | 60 | 79 | 0.0 | 5.0 | 0.00 | 0.07 | 0.07 | 40 | 1009.8 |
| 20260508164613 | 60 | 284 | 0.0 | 6.0 | 0.00 | 0.07 | 0.07 | 40 | 1010.2 |
| 20260508163057 | 60 | 129 | 2.0 | 5.0 | 0.00 | 0.07 | 0.07 | 40 | 1010.2 |
| 20260508161555 | 60 | 156 | 0.0 | 4.0 | 0.00 | 0.07 | 0.07 | 44 | 1010.5 |
| 20260508160055 | 59 | 131 | 1.0 | 5.0 | 0.00 | 0.07 | 0.07 | 45 | 1010.5 |
| 20260508154555 | 58 | 129 | 1.0 | 3.0 | 0.00 | 0.07 | 0.07 | 47 | 1010.7 |
| 20260508153046 | 56 | 355 | 0.0 | 3.0 | 0.00 | 0.07 | 0.07 | 49 | 1010.8 |
| 20260508151543 | 55 | 113 | 0.0 | 2.0 | 0.00 | 0.07 | 0.07 | 52 | 1010.9 |
| 20260508150043 | 54 | 143 | 0.0 | 5.0 | 0.00 | 0.07 | 0.07 | 58 | 1011.0 |
| 20260508144543 | 54 | 110 | 0.0 | 2.0 | 0.00 | 0.07 | 0.07 | 58 | 1011.1 |
| 20260508143040 | 55 | 43 | 0.0 | 2.0 | 0.00 | 0.07 | 0.07 | 61 | 1011.2 |
| 20260508141548 | 55 | 165 | 0.0 | 2.0 | 0.00 | 0.07 | 0.07 | 57 | 1011.4 |
| 20260508140038 | 53 | 169 | 0.0 | 2.0 | 0.00 | 0.07 | 0.07 | 66 | 1011.5 |
| 20260508134536 | 52 | 162 | 0.0 | 3.0 | 0.00 | 0.07 | 0.07 | 69 | 1011.5 |
| 20260508133034 | 52 | 208 | 0.0 | 1.0 | 0.00 | 0.07 | 0.07 | 71 | 1011.7 |
| 20260508131532 | 53 | 136 | 0.0 | 1.0 | 0.00 | 0.07 | 0.07 | 73 | 1011.7 |
| 20260508130028 | 49 | 204 | 0.0 | 1.0 | 0.00 | 0.07 | 0.07 | 80 | 1011.7 |
| 20260508124524 | 47 | 181 | 0.0 | 3.0 | 0.00 | 0.07 | 0.07 | 81 | 1011.5 |
| 20260508123023 | 45 | 54 | 0.0 | 0.0 | 0.00 | 0.07 | 0.07 | 91 | 1011.4 |
| 20260508121523 | 45 | 56 | 0.0 | 0.0 | 0.00 | 0.07 | 0.07 | 96 | 1011.4 |
| 20260508120029 | 44 | 55 | 0.0 | 0.0 | 0.00 | 0.07 | 0.07 | 97 | 1011.2 |
| 20260508114521 | 42 | 55 | 0.0 | 0.0 | 0.00 | 0.07 | 0.07 | 97 | 1011.1 |
| 20260508113020 | 38 | 56 | 0.0 | 0.0 | 0.00 | 0.07 | 0.07 | 96 | 1010.9 |
| 20260508111519 | 37 | 56 | 0.0 | 0.0 | 0.01 | 0.07 | 0.07 | 96 | 1010.7 |
| 20260508110018 | 37 | 55 | 0.0 | 0.0 | 0.01 | 0.07 | 0.07 | 96 | 1010.6 |
| 20260508104518 | 37 | 56 | 0.0 | 0.0 | 0.01 | 0.07 | 0.07 | 96 | 1010.6 |
| 20260508103027 | 37 | 55 | 0.0 | 0.0 | 0.01 | 0.07 | 0.07 | 96 | 1010.6 |
| 20260508101521 | 38 | 55 | 0.0 | 0.0 | 0.00 | 0.06 | 0.06 | 96 | 1010.6 |
| 20260508100014 | 38 | 56 | 0.0 | 0.0 | 0.00 | 0.06 | 0.06 | 96 | 1010.6 |
| 20260508094512 | 38 | 55 | 0.0 | 0.0 | 0.00 | 0.06 | 0.06 | 96 | 1010.6 |
| 20260508093011 | 38 | 56 | 0.0 | 0.0 | 0.00 | 0.06 | 0.06 | 96 | 1010.7 |
| 20260508091508 | 39 | 55 | 0.0 | 0.0 | 0.00 | 0.06 | 0.06 | 96 | 1010.7 |
| 20260508090007 | 40 | 56 | 0.0 | 0.0 | 0.00 | 0.06 | 0.06 | 96 | 1010.8 |
| 20260508084505 | 40 | 56 | 0.0 | 0.0 | 0.00 | 0.06 | 0.06 | 96 | 1010.7 |
| 20260508083002 | 41 | 55 | 0.0 | 0.0 | 0.00 | 0.06 | 0.06 | 96 | 1010.7 |
| 20260508081502 | 42 | 56 | 0.0 | 0.0 | 0.00 | 0.06 | 0.06 | 96 | 1010.7 |
| 20260508080001 | 42 | 55 | 0.0 | 0.0 | 0.00 | 0.06 | 0.06 | 96 | 1010.7 |
| 20260508074501 | 42 | 55 | 0.0 | 0.0 | 0.00 | 0.06 | 0.06 | 96 | 1010.8 |
| 20260508073100 | 41 | 56 | 0.0 | 0.0 | 0.00 | 0.06 | 0.06 | 96 | 1010.9 |
| 20260508071558 | 41 | 55 | 0.0 | 0.0 | 0.00 | 0.06 | 0.06 | 95 | 1010.9 |
| 20260508070058 | 41 | 55 | 0.0 | 0.0 | 0.00 | 0.06 | 0.06 | 95 | 1010.9 |
| 20260508064601 | 41 | 56 | 0.0 | 0.0 | 0.00 | 0.06 | 0.06 | 95 | 1010.7 |
| 20260508063056 | 41 | 55 | 0.0 | 0.0 | 0.00 | 0.06 | 0.06 | 95 | 1010.8 |
| 20260508061557 | 41 | 56 | 0.0 | 0.0 | 0.00 | 0.06 | 0.06 | 95 | 1010.8 |
| 20260508060052 | 41 | 55 | 0.0 | 0.0 | 0.00 | 0.06 | 0.06 | 94 | 1010.9 |
| 20260508054600 | 41 | 55 | 0.0 | 0.0 | 0.00 | 0.06 | 0.06 | 94 | 1011.0 |
| 20260508053047 | 41 | 56 | 0.0 | 0.0 | 0.00 | 0.06 | 0.06 | 93 | 1011.0 |
| 20260508051551 | 42 | 56 | 0.0 | 0.0 | 0.02 | 0.06 | 0.06 | 92 | 1011.0 |
| 20260508050040 | 43 | 55 | 0.0 | 0.0 | 0.06 | 0.06 | 0.06 | 92 | 1011.0 |
| 20260508044538 | 44 | 56 | 0.0 | 0.0 | 0.06 | 0.06 | 0.06 | 91 | 1011.1 |
| 20260508043034 | 44 | 56 | 0.0 | 1.0 | 0.06 | 0.06 | 0.06 | 87 | 1011.2 |
| 20260508041530 | 47 | 263 | 0.0 | 1.0 | 0.03 | 0.03 | 0.03 | 79 | 1011.7 |
| 20260508040035 | 47 | 155 | 0.0 | 0.0 | 0.00 | 0.00 | 0.00 | 75 | 1011.1 |
| 20260508034529 | 47 | 155 | 0.0 | 0.0 | 0.00 | 0.00 | 0.00 | 71 | 1010.8 |
| 20260508033025 | 48 | 155 | 0.0 | 0.0 | 0.00 | 0.00 | 0.00 | 66 | 1010.8 |
| 20260508031530 | 48 | 155 | 0.0 | 0.0 | 0.00 | 0.00 | 0.00 | 61 | 1010.9 |
| 20260508030024 | 49 | 155 | 0.0 | 0.0 | 0.00 | 0.00 | 0.00 | 63 | 1011.2 |
| 20260508024625 | 48 | 155 | 0.0 | 0.0 | 0.00 | 0.00 | 0.00 | 60 | 1011.4 |
| 20260508023028 | 48 | 156 | 0.0 | 0.0 | 0.00 | 0.00 | 0.00 | 65 | 1011.1 |
| 20260508021522 | 48 | 224 | 0.0 | 0.0 | 0.00 | 0.00 | 0.00 | 60 | 1011.0 |
| 20260508020021 | 48 | 289 | 0.0 | 0.0 | 0.00 | 0.00 | 0.00 | 62 | 1011.0 |
| 20260508014540 | 48 | 289 | 0.0 | 0.0 | 0.00 | 0.00 | 0.00 | 61 | 1010.9 |
| 20260508013020 | 48 | 290 | 0.0 | 0.0 | 0.00 | 0.00 | 0.00 | 58 | 1010.9 |
| 20260508011521 | 49 | 289 | 0.0 | 1.0 | 0.00 | 0.00 | 0.00 | 56 | 1010.7 |
| 20260508010026 | 50 | 284 | 0.0 | 2.0 | 0.00 | 0.00 | 0.00 | 56 | 1010.7 |
| 20260508004524 | 50 | 276 | 0.0 | 0.0 | 0.00 | 0.00 | 0.00 | 51 | 1010.6 |
| 20260508003042 | 50 | 276 | 0.0 | 0.0 | 0.00 | 0.00 | 0.00 | 49 | 1010.2 |
| 20260508001517 | 51 | 275 | 0.0 | 0.0 | 0.00 | 0.00 | 0.00 | 48 | 1010.1 |
| 20260508000017 | 52 | 276 | 0.0 | 1.0 | 0.00 | 0.00 | 0.00 | 47 | 1010.1 |
| 20260507234517 | 53 | 283 | 0.0 | 2.0 | 0.00 | 0.00 | 0.00 | 45 | 1010.1 |
| 20260507233023 | 53 | 273 | 0.0 | 4.0 | 0.00 | 0.00 | 0.00 | 45 | 1010.2 |
| 20260507231516 | 52 | 295 | 0.0 | 1.0 | 0.00 | 0.00 | 0.00 | 46 | 1010.2 |
| 20260507230016 | 53 | 301 | 0.0 | 2.0 | 0.00 | 0.00 | 0.00 | 44 | 1010.3 |